Weather in Shirokiy Buyerak

Russia / Saratov Oblast     52°07′00″N   47°46′00″E
temp.,
°C
wind,
m/s
gust,
m/s
humid.,
%
clouds,
%
prec.,
mm/h
press.,
hPa
HPBL,
m
26 july, mon
mon2601:00+19n2349100 0.0 102274
04:00+18ne354872 0.0 1022121
07:00+18ese1145100 0.0 1023101
10:00+20nne334170 0.0 1023365
13:00+24ne32305 0.0 10231408
16:00+25nne223127 0.0 10221628
19:00+22n224174 0.0 102242
22:00+18nnw11533 0.0 102211
27 july, tue
tue2701:00+16nnw11574 0.0 102211
04:00+18nw114986 0.0 102211
07:00+19wnw125061 0.0 1022105
10:00+23nw334191 0.0 1022824
13:00+27wnw463282 0.0 10202743
16:00+26wnw6534100 0.0 10192363
19:00+24nnw24455 0.0 1018213
22:00+20nw22573 0.0 101916
28 july, wed
wed2801:00+18nw226216 0.0 101818
04:00+16nnw22734 0.0 101819
07:00+19n23680 0.0 1019147
10:00+24nne34480 0.0 10191062
13:00+27nne45300 0.0 10182034
16:00+28n45313 0.0 10172346
19:00+27nne123891 0.0 1016550
22:00+21sse224713 0.0 101612
29 july, thu
thu2901:00+19ssw22525 0.0 101516
04:00+18sw225582 0.0 101520
07:00+20ssw31151100 0.0 1014293
10:00+27sw71033100 0.1 1013931
13:00+30wsw91229100 0.0 10112278
16:00+29wsw9143597 0.0 10101738
19:00+27wsw6104898 0.3 1009651
22:00+20sw47822 0.8 1009115
30 july, fri
fri3001:00+19wsw368489 0.1 100990
04:00+19w348699 0.1 100856
07:00+22w37735 0.0 1009209
10:00+28wnw45455 0.0 1009772
13:00+32w573459 0.0 10092810
16:00+32wsw463283 0.0 10082470
19:00+30w224248 0.0 100890
22:00+23ese116262 0.3 100821